Погода в Бенитсесе

Греция     39°32′30″N   19°54′50″E
темп.,
°C
ветер,
м/с
пор.,
м/с
влажн.,
%
обл.,
%
осадки,
мм/ч
давл.,
гПа
погр.,
м
8 августа, пн
пн800:00+27вюв226596 0.0 101019
03:00+26св566613 0.1 101087
06:00+26всв336682 0.1 1010121
09:00+26св336334 0.3 1012108
12:00+28сз33586 0.0 101183
15:00+28сз456443 0.0 1011155
18:00+28з34705 0.0 1011121
21:00+27сз55705 0.0 101166
9 августа, вт
вт900:00+27ссз44675 0.0 101346
03:00+26ссв34687 0.0 101262
06:00+26ссв33655 0.0 101269
09:00+26всв33565 0.0 101388
12:00+27з22555 0.0 1013119
15:00+27ссз577156 0.0 1012213
18:00+27ссз566773 0.0 1012118
21:00+27сз676975 0.0 1012106
10 августа, ср
ср1000:00+26с57815 0.0 1012246
03:00+26с33770 0.0 1011154
06:00+26всв22640 0.0 101180
09:00+26св22630 0.0 1012125
12:00+26з33655 0.0 1011155
15:00+26сз457235 0.0 1011250
18:00+27ссв226756 0.0 1011128
21:00+27сз347092 0.0 101057
11 августа, чт
чт1100:00+27юз017019 0.0 101013
03:00+26ююв22775 0.0 101052
06:00+26в33705 0.0 101073
09:00+26вюв22565 0.0 101058
12:00+27юз33625 0.0 1011128
15:00+27з33675 0.0 1011238
18:00+26с23675 0.0 1010126
21:00+27ссз33695 0.0 101048
12 августа, пт
пт1200:00+26св22695 0.0 101127
03:00+26вюв33696 0.0 101171
06:00+26св2260100 0.0 101192
09:00+25св2256100 0.0 1012118
12:00+27зсз2256100 0.1 1012119
15:00+27зсз56655 0.1 1012279
18:00+27ссз34620 0.0 1011170
21:00+27юз11645 0.0 101232